SCP
1 1 1 1 1 1 1 0 0 0 0 1 1 2 2 2 2 2 2 1 0 0 0 0 1 1 1 1 1 2 2 1 1 1 1 1 1 1
0 0 1 1 1 1 1 0 0 0 0 1 1 2 2 2 2 2 2 1 1 0 0 0 0 1 1 1 1 1 1 1 1 1 1 1 1 1
0 0 0 0 0 1 1 0 0 0 0 1 1 1 2 1 2 2 2 2 1 1 0 0 0 0 0 0 1 1 1 1 1 1 1 1 1 1
0 0 0 0 0 0 0 0 0 0 0 1 1 1 1 1 2 2 2 2 2 1 0 0 0 0 0 0 0 0 0 0 0 0 0 0 0 0
0 0 0 0 0 0 0 0 0 0 0 0 1 1 1 1 1 2 2 2 2 1 0 0 0 0 0 0 0 0 0 0 0 0 0 0 0 0
0 0 0 0 0 0 0 0 0 0 0 0 1 1 1 1 1 1 1 2 1 1 1 1 0 0 0 0 0 0 0 0 0 0 0 0 0 0
0 0 0 0 0 0 0 0 0 0 0 0 1 1 1 1 1 1 1 1 1 1 1 1 1 1 1 0 0 0 0 0 0 0 0 0 0 0
0 0 0 0 0 0 0 0 0 0 0 1 1 1 1 1 1 1 1 1 1 1 1 1 1 1 1 1 0 0 0 0 0 0 0 0 0 0
0 0 0 0 0 0 0 0 0 0 0 1 1 1 1 1 1 1 1 1 1 1 1 1 1 1 1 1 0 0 0 0 0 0 0 0 0 0
0 0 0 0 0 0 0 0 0 0 0 0 1 1 1 1 1 1 1 1 1 1 1 1 1 1 1 1 0 0 0 0 0 0 0 0 0 0
0 0 0 0 0 0 0 0 0 0 0 0 0 0 0 1 1 1 1 1 1 1 1 2 1 1 1 0 0 0 0 0 0 0 0 0 0 0
0 0 0 0 0 0 0 0 0 0 0 0 0 1 1 1 1 1 1 1 1 1 1 1 1 1 1 0 0 0 0 0 0 0 0 0 0 0
0 0 0 0 0 0 0 0 0 0 0 1 1 1 1 1 1 1 1 1 1 1 1 1 1 1 1 0 0 0 0 0 0 0 0 0 0 0
0 0 0 0 0 0 0 0 0 0 1 1 1 1 1 1 1 1 1 1 1 1 1 1 1 1 1 0 0 0 0 0 0 0 0 0 0 0
0 0 0 0 0 0 0 0 0 0 1 1 1 1 1 1 1 1 1 1 1 1 1 1 1 1 1 1 0 0 0 0 0 0 0 0 0 0
0 0 0 0 0 0 0 0 0 0 1 1 1 1 1 1 1 2 1 1 1 1 1 1 1 1 1 1 1 0 0 0 0 0 0 0 0 0
0 0 0 0 0 0 0 0 0 0 1 1 1 1 1 1 1 1 1 1 1 1 1 1 1 1 1 1 1 0 0 0 0 0 0 0 0 0
0 0 0 0 0 0 0 0 0 0 1 1 1 1 1 1 1 1 1 1 1 1 1 1 1 1 1 1 1 1 0 0 0 0 0 0 0 0
0 0 0 0 0 0 0 0 0 1 1 1 1 1 1 1 1 1 1 1 1 1 1 1 1 1 1 1 1 0 0 0 0 0 0 0 0 0
0 0 0 0 0 0 0 0 0 0 1 1 1 1 1 1 1 1 1 1 1 1 1 1 1 1 1 1 1 0 0 0 0 0 0 0 0 0
0 0 0 0 0 0 0 0 0 0 0 1 1 1 1 1 1 1 1 1 1 1 1 1 1 1 1 1 1 0 0 0 0 0 0 0 0 0
0 0 0 0 0 0 0 0 0 0 0 0 1 1 1 1 1 1 1 1 1 1 1 1 1 1 1 1 1 0 0 0 0 0 0 0 0 0
0 0 0 0 0 0 0 0 0 0 0 0 1 1 1 1 1 1 1 1 1 1 1 1 1 1 1 1 1 0 0 0 0 0 0 0 0 0
Wind_Speed
11 11 10 9 8 8 8 8 8 9 8 6 4 3 3 4 4 6 8 9 13 16 16 17 17 18 18 19 19 19 18 17 17 17 17 17 18 18
9 10 10 10 8 8 8 8 8 9 9 7 5 5 4 4 3 5 5 6 11 13 14 14 15 16 17 17 17 17 17 16 16 15 15 15 15 15
11 12 12 12 10 9 8 8 8 8 9 8 7 5 5 5 4 3 4 4 5 10 12 13 14 14 15 15 15 15 15 15 14 14 14 14 13 13
12 12 12 11 12 11 9 10 9 8 9 10 8 6 6 5 4 4 3 3 3 6 9 10 11 12 13 13 13 13 13 13 13 12 12 12 12 11
12 12 13 12 12 11 11 11 10 9 9 9 9 6 5 4 4 4 3 1 2 5 7 8 9 10 11 12 12 12 12 12 12 11 11 10 10 10
13 13 13 13 13 12 11 12 11 11 10 10 9 7 5 5 5 4 3 3 3 4 4 6 8 9 10 10 12 12 11 11 11 11 10 10 9 9
13 13 13 13 11 10 10 10 11 10 10 10 9 8 7 5 5 4 4 4 3 3 5 5 6 6 7 9 10 11 11 11 11 11 10 10 9 9
13 13 13 13 13 14 15 15 14 13 12 11 10 9 8 7 5 5 4 5 4 4 4 4 4 5 5 5 8 10 10 11 11 11 11 11 10 9
13 12 12 12 11 13 15 19 19 19 17 14 13 11 9 8 8 9 7 6 4 6 5 3 3 4 4 6 10 10 10 11 11 11 11 11 10 10
14 14 13 13 13 12 13 13 14 15 17 16 15 12 10 7 7 8 6 6 4 5 6 4 4 4 4 5 9 9 10 10 11 11 11 11 11 11
14 13 13 13 11 9 12 13 14 13 12 13 12 9 6 4 4 6 7 6 5 5 5 4 5 4 4 5 7 9 9 10 11 11 12 12 13 12
11 11 12 13 10 8 12 13 14 13 12 11 12 12 12 10 9 9 8 7 6 5 6 5 6 6 5 3 5 7 7 9 10 11 12 12 12 8
9 9 7 11 13 11 12 13 12 11 11 11 10 11 11 10 11 11 10 8 7 5 7 7 7 6 5 6 4 5 7 7 7 7 9 9 6 4
10 9 6 6 10 12 12 12 10 9 10 9 9 10 10 10 10 10 10 10 7 6 8 8 6 7 7 7 6 6 6 7 8 8 8 8 4 3
10 9 7 5 8 11 14 13 11 11 11 10 10 10 10 9 8 8 9 8 8 7 9 9 7 8 8 7 8 8 7 7 8 8 9 9 8 8
11 9 11 12 12 11 8 11 11 10 10 10 10 9 8 8 8 8 8 8 7 6 8 9 8 9 7 8 9 9 8 8 9 9 9 8 8 8
7 7 7 7 8 9 9 9 9 10 10 10 9 8 8 8 8 8 8 8 8 8 8 7 6 5 5 6 8 9 9 9 9 9 9 9 8 8
7 8 8 8 8 8 8 8 8 9 9 9 9 9 9 9 9 8 8 8 8 8 9 9 8 6 4 2 4 8 8 9 10 10 9 9 9 9
8 9 8 8 8 8 8 8 9 9 8 9 9 9 8 8 9 9 9 9 8 8 9 9 10 9 9 8 6 6 8 9 10 10 9 9 9 9
8 8 8 7 7 7 7 7 7 7 8 8 8 8 9 8 8 9 9 10 9 8 8 9 10 10 10 9 7 7 10 10 10 10 9 6 6 8
6 7 7 6 6 6 6 7 7 7 7 8 8 8 8 8 9 9 9 10 9 9 10 10 9 9 6 6 7 7 8 8 7 9 10 9 9 9
6 6 5 5 5 6 6 6 6 7 7 7 8 8 8 8 9 10 9 9 9 9 10 8 10 9 7 8 9 10 9 8 5 7 6 3 7 10
6 6 5 5 5 5 6 7 8 7 7 8 8 8 8 8 8 8 9 9 9 10 9 9 9 9 8 8 9 9 11 11 8 8 5 5 5 5
Wind_Direction
267 259 253 260 258 257 256 261 274 281 282 280 264 276 282 268 261 243 237 208 207 207 207 207 207 205 203 202 203 205 207 209 210 212 213 215 216 218
267 271 270 265 261 258 255 253 256 266 275 283 280 284 295 284 262 257 247 212 209 206 201 201 203 201 198 197 198 199 201 203 205 206 207 208 208 210
268 263 259 264 265 262 257 253 252 255 265 271 275 279 277 277 269 254 241 226 202 194 191 192 196 194 191 190 192 194 195 197 199 201 202 202 202 204
266 266 264 260 254 257 257 256 254 255 262 269 274 275 269 261 252 245 245 226 202 166 176 179 183 182 183 183 184 186 187 189 190 190 190 191 192 195
266 264 263 262 260 257 255 255 253 247 245 256 261 264 268 256 243 228 210 186 164 145 151 157 164 168 171 173 174 175 176 176 177 178 180 181 182 185
264 262 262 259 256 256 255 252 253 254 249 249 252 252 252 249 231 218 199 170 152 150 135 133 140 147 156 160 163 165 167 168 170 171 171 173 175 176
265 261 258 259 269 267 267 262 255 249 248 243 243 240 239 238 229 219 205 170 159 158 148 147 150 154 153 155 159 161 162 164 165 166 166 167 167 167
268 264 262 249 241 234 246 259 267 264 259 255 247 241 235 234 229 226 207 189 181 169 162 157 159 153 154 154 143 150 157 160 161 161 161 160 159 159
267 264 263 262 248 245 232 229 239 245 253 262 262 255 243 228 225 220 208 204 193 168 160 157 155 143 130 114 131 144 150 152 153 154 154 151 150 148
261 259 259 262 259 257 256 249 244 235 229 232 245 251 250 246 232 231 220 199 187 181 172 159 154 141 126 122 131 139 144 146 146 146 146 142 138 134
260 257 256 257 251 240 253 258 258 254 240 231 238 248 259 242 237 231 211 198 195 188 178 159 147 131 127 130 131 137 139 142 142 142 143 141 139 137
265 259 245 245 254 225 243 249 252 251 251 228 217 220 227 220 213 228 223 209 201 190 175 159 152 146 137 134 145 151 142 137 139 143 148 153 163 162
272 267 258 208 220 225 238 250 254 264 257 247 235 224 219 215 212 214 220 217 209 197 173 166 165 167 148 139 150 161 158 154 152 149 156 166 188 207
275 273 273 198 210 221 230 243 249 255 253 245 236 227 219 214 213 211 211 215 217 199 178 176 170 173 155 151 150 158 165 165 164 162 162 162 156 100
270 281 287 258 234 231 231 232 231 234 238 235 231 228 223 216 212 206 205 207 207 197 185 190 181 172 171 164 155 160 163 170 174 167 165 173 172 168
254 256 239 237 241 255 232 214 222 229 231 231 231 228 222 210 207 205 199 192 195 188 189 189 187 177 178 169 162 165 168 167 174 174 171 172 175 178
305 278 262 246 231 230 231 225 220 218 221 228 228 225 217 209 205 203 200 194 196 186 178 176 172 167 169 165 165 171 172 168 171 170 173 172 176 177
274 262 256 250 242 234 229 223 219 219 217 218 219 217 213 208 204 201 197 199 201 192 181 171 162 152 145 151 171 172 174 170 166 172 180 175 172 175
245 251 252 250 244 236 230 226 222 217 214 215 213 211 211 207 202 199 195 198 201 195 182 172 172 173 176 175 173 188 176 166 162 173 185 183 175 169
241 251 252 249 239 233 232 227 222 215 209 210 210 209 207 203 200 200 197 197 198 193 183 179 183 187 190 177 160 173 184 170 168 173 177 174 144 123
254 252 251 248 240 233 232 227 221 214 208 204 203 204 205 203 203 203 200 194 198 194 189 187 182 174 164 149 148 155 169 175 171 173 171 165 158 165
266 263 255 244 235 229 226 220 216 210 208 208 203 202 204 203 203 204 201 195 198 197 192 177 163 167 176 180 170 157 155 158 133 120 111 123 173 181
262 263 254 238 226 219 219 216 212 209 205 203 201 202 202 201 202 201 200 200 199 194 182 170 167 175 184 181 169 157 156 158 158 161 151 54 60 86